This demonstration page uses our WeatherBlox Daily Observations layout. Learn more.

38.88101, -77.10428

Hourly Observations for January 11, 2017

Temp ( °F °C ) Dew Point ( °F °C ) Humidity (%) Winds ( mph kmh ) Pressure ( in mb ) Visibility ( mi km ) Precip ( " mm )
12:52 am 00:52 Cloudy with Light Rain 40 4.4 33 0.6 77 77 SSW 18 30 30.2 1023 10 16.0934 0.02 0.508
1:52 am 01:52 Cloudy 40 4.4 33 0.6 77 77 SSW 17 28 30.22 1023 10 16.0934 0 0.0254
2:52 am 02:52 Cloudy 40 4.4 34 1.1 79 79 S 13 20 30.24 1024 10 16.0934 0 0
3:52 am 03:52 Cloudy 41 5 35 1.7 79 79 S 13 20 30.24 1024 10 16.0934 0 0
4:52 am 04:52 Cloudy 42 5.6 35 1.7 76 76 S 5 7 30.26 1025 10 16.0934 0 0
5:52 am 05:52 Partly Cloudy 39 3.9 34 1.1 82 82 S 9 15 30.29 1026 10 16.0934 0 0
6:52 am 06:52 Mostly Clear 39 3.9 34 1.1 82 82 S 5 7 30.3 1026 10 16.0934 0 0
7:52 am 07:52 Mostly Sunny 38 3.3 34 1.1 86 86 SSW 8 13 30.32 1027 10 16.0934 0 0
8:52 am 08:52 Mostly Cloudy 41 5 36 2.2 82 82 S 6 9 30.35 1028 10 16.0934 0 0
9:52 am 09:52 Mostly Cloudy 45 7.2 37 2.8 74 74 S 8 13 30.37 1028 10 16.0934 0 0
10:52 am 10:52 Cloudy 48 8.9 37 2.8 66 66 S 9 15 30.36 1028 10 16.0934 0 0
11:52 am 11:52 Cloudy 50 10 37 2.8 61 61 SSE 7 11 30.33 1027 10 16.0934 0 0
12:52 pm 12:52 Cloudy 52 11.1 38 3.3 59 59 SSE 3 6 30.29 1026 10 16.0934 0 0
1:52 pm 13:52 Cloudy 56 13.3 39 3.9 53 53 S 7 11 30.29 1026 10 16.0934 0 0
2:52 pm 14:52 Cloudy 55 12.8 40 4.4 57 57 SSW 8 13 30.28 1025 10 16.0934 0 0
3:52 pm 15:52 Mostly Cloudy 50 10 39 3.9 66 66 S 7 11 30.27 1025 10 16.0934 0 0
4:52 pm 16:52 Cloudy 50 10 40 4.4 68 68 S 8 13 30.27 1025 10 16.0934 0 0
5:52 pm 17:52 Cloudy 47 8.3 41 5 80 80 S 8 13 30.26 1025 10 16.0934 0 0.0254
6:52 pm 18:52 Cloudy 50 10 42 5.6 74 74 S 13 20 30.26 1025 10 16.0934 0 0
7:52 pm 19:52 Cloudy with Light Rain 45 7.2 42 5.6 90 90 S 10 17 30.25 1024 7 11.26538 0.02 0.508
8:52 pm 20:52 Cloudy with Light Rain 44 6.7 43 6.1 96 96 S 8 13 30.24 1024 10 16.0934 0.02 0.508
9:52 pm 21:52 Cloudy 47 8.3 45 7.2 93 93 SSW 9 15 30.24 1024 10 16.0934 0 0.0254
10:52 pm 22:52 Mostly Cloudy with Light Rain 50 10 47 8.3 89 89 SSW 12 19 30.23 1024 10 16.0934 0.01 0.254
11:52 pm 23:52 Cloudy 51 10.6 49 9.4 92 92 SSW 15 24 30.21 1023 10 16.0934 0 0.0254

Powered by AerisWeather